Theta_e
337 338 339 340 340 338 336 335 335 336 337 337 337 336 336 336 339 343 343 343 342 341 342 343 343 342 341 341 339 337 335 334 330 327 326 329 332 335 335 334 335 336 336 337 337 336 334 333 332 331 331 331 330 330 330 331 334 337 337 337 337 338 338 339 339 338 338 338 338 338 338 338 338 337 336 334 334 333 329 325 325 322 321 323 324
337 337 338 338 338 338 336 335 335 336 337 337 336 336 336 336 339 342 343 343 342 341 341 342 342 343 342 342 341 338 337 336 335 333 330 329 328 330 330 331 332 334 334 335 335 335 334 334 333 332 331 331 331 331 333 334 336 337 337 336 338 339 339 339 339 339 339 339 339 338 338 338 337 337 337 335 334 330 323 319 318 317 317 318 317
338 338 337 337 336 336 336 335 335 335 336 336 336 336 336 336 338 340 342 343 342 341 341 342 343 344 343 343 342 341 340 340 338 337 335 334 332 331 330 329 329 331 332 333 333 333 334 334 334 333 333 333 334 335 336 336 336 336 336 336 338 340 340 339 338 338 339 339 339 338 337 337 337 336 335 334 330 324 319 317 316 316 316 316 316
338 338 338 337 337 336 336 336 335 335 336 336 337 337 337 337 338 340 343 343 342 342 343 344 345 345 345 345 344 344 344 344 341 339 338 336 335 335 334 333 332 332 332 333 333 332 333 333 333 332 332 333 333 334 334 335 336 337 337 337 339 339 338 338 337 338 338 337 336 335 334 333 333 332 331 329 324 319 317 316 316 316 316 316 316
339 339 340 339 338 338 337 337 337 337 337 337 337 338 339 339 339 341 343 342 342 343 345 345 345 346 346 345 345 346 346 345 343 342 342 340 338 337 336 335 335 334 334 335 335 335 334 334 334 334 333 333 334 334 335 336 337 337 337 338 338 337 336 336 336 335 334 332 330 328 326 324 324 325 326 324 320 317 317 316 316 316 316 316 316
340 339 341 341 340 339 339 339 339 339 340 339 339 339 339 340 341 342 343 343 343 345 345 346 346 346 346 346 346 346 346 346 345 344 344 343 341 340 338 338 337 336 335 335 335 335 335 335 335 335 335 336 336 336 336 336 336 336 335 336 335 335 335 334 334 332 331 327 324 321 318 317 318 319 321 321 318 317 317 316 316 316 317 317 317
341 340 341 342 341 340 339 340 340 341 341 341 341 340 340 341 342 343 344 344 345 345 346 346 346 346 346 346 346 346 346 347 346 346 346 344 342 341 340 340 340 339 338 337 336 336 336 336 336 336 336 336 336 335 336 335 335 334 334 334 334 333 333 332 331 330 327 322 318 316 315 315 316 318 319 318 317 317 317 317 317 318 318 318 318
341 341 341 342 341 341 340 340 340 341 341 341 341 341 341 341 342 344 345 344 345 346 346 346 345 346 346 346 346 347 347 346 347 347 346 346 344 343 342 341 341 340 340 340 340 340 340 340 339 338 337 336 336 335 335 335 334 333 333 333 333 332 331 330 329 326 323 319 316 316 316 316 317 317 317 317 317 318 318 318 319 319 319 319 319
341 342 342 341 342 342 341 340 340 341 340 340 340 340 340 341 342 344 345 345 345 346 345 345 346 346 346 346 346 347 347 346 347 347 347 346 346 346 345 343 342 342 343 343 343 343 342 340 339 340 340 338 337 336 335 335 334 333 332 332 331 329 327 326 325 322 319 317 316 316 316 317 317 317 318 318 318 318 319 319 319 319 319 319 319
341 341 342 342 342 342 341 340 340 340 340 340 340 340 340 341 342 344 345 345 345 345 345 345 345 345 345 346 346 346 346 346 347 348 347 347 347 348 347 346 345 346 346 345 344 343 339 336 335 335 336 334 333 333 333 334 333 332 331 329 327 325 323 321 321 319 318 317 317 317 317 317 318 318 318 318 319 319 319 319 319 319 319 319 320
342 342 342 342 342 342 341 341 341 340 340 340 340 340 341 342 342 344 344 345 345 346 345 346 345 344 344 343 344 344 345 346 347 348 348 348 348 348 348 348 347 346 344 342 342 340 334 331 330 329 328 326 327 330 332 332 332 330 328 326 323 321 320 319 319 318 318 318 318 318 318 318 318 319 319 319 319 319 319 319 319 319 319 319 319
342 343 342 342 342 342 342 343 342 340 340 340 340 341 342 343 344 344 345 345 345 346 346 346 345 344 343 342 342 342 344 345 347 347 347 348 348 347 348 347 345 343 341 337 336 335 332 330 328 326 324 323 324 326 327 328 327 326 324 322 321 320 319 319 319 319 319 320 320 320 320 320 320 320 321 321 321 321 321 320 320 320 320 320 320
343 342 341 341 342 341 341 342 341 340 340 340 340 341 343 343 344 344 345 345 345 346 346 346 345 344 343 342 341 341 343 345 346 346 346 346 346 346 345 344 342 340 337 335 334 336 337 337 335 333 330 326 324 323 323 323 323 322 321 321 321 320 320 320 320 321 321 321 321 322 322 322 322 322 322 323 323 323 323 323 322 322 322 322 322
343 342 342 342 342 341 340 341 340 339 340 340 341 342 344 344 344 345 345 345 345 346 346 345 344 344 343 343 341 340 342 344 344 344 344 344 344 344 344 343 342 340 337 335 336 338 340 341 341 340 339 335 330 325 323 322 322 322 322 321 321 322 322 322 322 322 323 323 323 324 324 324 325 325 325 325 326 326 326 327 326 326 326 326 326
344 343 342 342 341 342 341 342 341 340 340 341 342 343 344 345 344 345 345 345 345 345 346 345 344 344 343 342 341 340 341 343 343 343 343 343 343 343 343 342 342 341 340 338 338 339 340 341 342 342 342 340 336 331 327 325 325 324 324 324 323 324 324 324 324 325 325 326 326 327 327 328 328 329 330 330 331 331 331 331 331 331 331 331 331
344 342 341 341 341 342 342 343 343 342 341 341 342 344 345 344 344 344 344 344 344 344 344 343 343 343 342 341 341 340 340 342 342 342 342 342 342 342 342 342 342 342 342 341 340 340 341 341 342 342 342 341 339 336 333 331 330 328 327 326 326 326 326 326 327 327 328 329 330 331 332 334 335 336 337 338 339 339 339 339 339 338 338 338 337
344 343 342 342 341 342 342 343 344 344 343 342 342 343 344 344 343 343 343 342 343 343 343 342 341 342 342 341 341 341 342 343 342 340 341 342 342 342 342 342 342 342 342 342 342 342 342 342 342 342 342 341 340 338 337 336 334 332 331 330 329 329 329 330 331 333 334 336 337 338 340 341 342 343 344 345 345 346 346 346 346 345 345 345 344
344 344 343 342 342 342 343 344 344 344 344 343 343 343 343 342 342 342 342 341 341 342 341 341 341 341 341 341 340 341 343 343 342 340 340 341 341 341 341 341 341 342 342 342 342 342 342 342 342 342 342 341 340 339 339 339 338 337 337 335 335 335 335 336 338 340 341 342 343 344 345 345 346 347 347 348 348 348 348 348 349 349 349 349 349
343 344 344 344 343 344 344 344 344 344 345 345 343 343 342 341 341 341 341 341 341 341 340 339 340 341 341 340 340 342 343 344 343 342 341 341 340 340 341 341 341 341 341 341 341 341 341 341 341 341 341 340 339 340 341 342 342 342 342 342 342 342 343 344 344 345 345 345 346 346 347 348 348 349 349 349 349 350 350 350 351 351 351 351 351
343 343 344 345 344 344 344 344 344 344 344 344 344 343 342 341 341 340 340 340 339 339 339 339 339 339 340 340 341 343 345 344 344 343 343 342 340 340 341 341 341 340 339 340 340 340 340 340 340 339 340 340 339 339 340 342 344 344 345 345 346 346 346 346 346 346 346 346 347 348 349 350 350 350 350 351 351 351 352 352 352 353 353 353 353
343 343 344 345 345 345 345 343 344 344 344 343 344 344 343 342 341 340 340 339 339 338 339 340 339 339 340 341 342 344 345 344 343 343 343 343 341 340 341 342 342 340 339 340 339 339 338 338 338 338 339 340 340 339 339 340 342 345 346 346 346 346 346 346 346 347 347 347 347 348 349 350 351 351 352 352 353 353 354 354 354 354 354 353 353
343 343 344 345 345 345 345 344 344 345 344 343 343 342 342 342 340 340 340 340 339 339 340 340 340 339 340 341 342 343 344 343 342 343 343 344 343 341 341 343 342 341 340 340 338 338 337 337 338 339 340 340 340 340 340 339 340 342 345 346 345 344 343 344 344 345 345 345 346 347 349 350 351 352 353 354 354 354 354 354 353 352 352 351 351
342 343 343 343 344 345 345 345 345 345 344 345 344 343 342 340 338 338 339 340 339 340 340 339 339 339 339 340 342 343 343 342 342 343 344 344 343 342 343 345 343 342 341 339 338 337 337 338 339 340 340 341 340 340 340 341 340 340 342 344 343 341 340 341 341 342 343 344 345 347 349 351 353 354 355 354 353 353 352 352 351 350 350 349 349
341 342 342 341 342 342 344 345 345 344 344 345 345 344 343 341 337 336 338 339 339 340 340 339 339 338 339 339 341 343 343 342 342 344 345 345 343 343 345 345 343 341 341 340 338 338 338 338 339 340 340 341 341 340 340 340 340 340 340 341 342 340 339 338 339 340 342 345 346 348 350 353 354 354 354 353 352 351 350 349 347 345 343 342 341
340 340 341 340 340 340 341 343 344 344 344 345 345 345 344 342 339 337 337 338 339 339 340 341 340 339 338 339 340 342 343 342 343 345 346 345 344 344 344 343 342 341 340 340 339 338 339 339 339 340 341 341 341 341 340 340 340 340 340 339 339 337 336 337 338 341 343 345 347 349 352 353 353 353 353 353 352 350 347 343 339 335 332 331 331
338 338 338 339 340 340 340 341 343 343 344 345 345 345 345 344 342 340 338 337 337 338 340 342 341 339 339 339 341 342 342 342 344 347 346 344 344 344 343 342 341 340 339 339 339 339 340 340 340 341 342 342 341 341 341 340 339 337 336 334 334 334 335 337 339 342 345 347 349 350 352 352 353 354 354 353 351 347 341 335 330 328 327 327 327
338 338 337 338 340 341 340 340 341 341 343 345 345 345 345 345 344 343 340 338 337 338 340 341 341 340 340 341 342 342 341 343 346 347 346 344 343 343 342 341 340 338 335 335 335 335 336 338 338 340 340 340 340 340 339 335 333 332 331 331 332 334 337 339 342 345 348 349 350 351 351 352 353 354 354 352 348 341 333 328 326 326 325 325 325
340 340 339 338 339 340 341 340 340 340 341 343 345 345 346 346 345 344 343 341 339 338 339 339 339 340 341 341 342 341 341 344 346 346 344 343 343 342 341 341 341 338 334 331 331 332 333 333 335 337 339 338 338 337 334 332 331 330 331 332 333 335 338 342 345 347 348 350 350 350 351 353 353 353 352 348 341 334 328 326 325 325 324 324 323
342 342 342 340 340 340 340 340 340 340 341 342 344 345 346 347 346 345 345 344 342 339 337 334 333 336 339 341 340 340 341 345 346 345 344 343 343 342 341 341 341 341 337 332 331 332 333 332 332 334 335 335 334 333 332 332 331 331 332 334 334 335 338 343 345 346 348 349 349 350 350 351 352 351 348 341 334 329 327 325 325 324 324 322 321
341 342 343 343 342 341 341 341 341 341 341 342 343 344 345 346 347 346 346 346 344 341 338 333 329 331 336 339 340 340 343 345 345 344 343 343 343 343 342 341 341 341 338 333 333 334 334 333 333 333 333 333 332 331 331 332 331 332 334 335 335 336 338 342 345 347 347 347 347 348 349 350 351 348 341 334 330 328 325 324 324 323 322 321 321
338 341 342 342 343 343 341 341 342 342 342 341 341 342 343 344 345 346 347 347 345 343 340 335 330 329 333 337 339 340 343 344 344 344 343 343 342 342 343 342 341 341 338 334 335 336 336 336 336 337 335 333 332 330 330 331 331 332 334 335 335 337 339 343 346 346 345 345 346 347 350 351 348 341 334 330 329 327 325 324 323 322 321 321 321
334 338 340 341 342 342 341 340 340 341 343 343 342 341 342 342 342 343 344 345 346 345 342 338 334 330 330 334 337 340 343 344 344 344 343 342 342 342 342 341 340 341 339 336 336 335 336 338 339 339 338 334 332 330 329 329 330 332 334 334 334 336 340 343 344 344 344 345 347 350 351 350 343 335 331 329 328 326 324 323 322 321 321 321 321
331 334 338 340 341 340 340 339 337 337 339 341 342 342 342 341 341 340 339 340 342 344 343 341 338 333 330 330 332 336 340 343 343 343 343 343 342 341 340 339 339 340 339 339 339 335 334 337 338 338 337 335 332 331 330 329 329 330 332 331 332 335 339 341 342 344 345 347 350 352 350 345 338 332 330 329 328 326 324 322 321 321 321 321 321
329 330 332 335 336 336 336 335 334 333 332 334 337 338 340 341 340 339 338 338 339 341 343 342 340 338 335 333 331 331 334 338 340 342 342 342 342 340 338 337 338 339 338 340 341 338 334 334 334 335 336 335 333 331 331 329 329 330 330 330 331 334 337 340 343 345 347 350 351 351 348 341 335 331 329 328 327 325 322 321 321 321 321 321 320
328 328 328 328 330 330 330 330 330 330 329 330 331 332 334 337 340 340 339 338 338 339 340 341 341 341 340 338 335 332 330 331 333 336 339 340 340 338 336 337 337 336 338 339 340 338 335 334 333 334 334 334 333 332 331 330 329 330 330 330 331 333 336 340 343 347 349 351 352 350 345 340 334 330 328 327 325 323 322 321 322 321 321 321 320
328 327 327 326 327 327 327 327 327 327 327 328 329 330 330 332 337 340 340 339 338 338 338 339 340 340 340 340 338 336 333 331 330 333 336 338 338 336 335 334 334 336 338 339 338 338 336 335 334 334 334 333 333 333 331 329 329 330 331 332 331 332 334 339 344 348 350 352 352 349 345 340 334 330 328 326 324 322 321 321 321 321 321 321 321
327 327 327 327 327 326 326 326 326 325 326 326 327 329 329 330 332 335 338 340 339 338 338 338 338 338 339 339 339 339 337 335 333 333 334 335 335 335 333 333 335 337 338 337 337 337 336 336 336 335 335 334 333 333 331 329 328 329 331 333 334 332 333 338 344 348 351 352 352 349 344 340 334 330 327 325 323 322 321 321 321 321 322 322 321
328 327 327 326 326 326 326 326 325 325 325 325 326 326 327 328 330 331 334 336 338 339 338 337 337 337 337 338 338 338 338 337 336 335 334 335 335 335 335 336 338 338 337 336 336 337 337 337 336 336 335 334 333 333 331 329 330 331 331 332 334 335 334 336 343 349 352 352 352 349 345 340 335 330 327 324 323 322 321 321 321 321 322 322 321
328 327 327 327 326 326 326 325 325 325 325 325 325 325 325 326 327 329 331 332 334 337 338 338 337 336 336 336 337 337 337 337 336 336 336 336 336 336 336 336 337 337 337 338 338 339 338 337 337 336 335 334 334 333 331 331 333 336 336 333 333 335 335 336 341 348 352 352 352 349 345 340 335 330 327 324 323 322 321 321 321 321 322 322 321
330 328 328 328 327 326 326 326 325 325 326 325 325 326 325 325 325 326 329 331 332 333 336 338 338 337 336 335 336 336 336 336 336 336 337 337 336 335 335 335 335 337 339 339 338 339 338 337 336 335 335 335 334 333 333 335 337 340 341 338 336 336 336 335 340 347 351 352 351 349 345 341 336 331 328 325 323 321 321 321 321 322 322 322 321
337 332 329 328 328 327 327 327 326 326 326 325 325 325 325 325 325 325 326 329 331 332 333 335 337 338 338 336 335 335 335 335 336 336 336 336 336 335 335 335 337 338 339 338 338 338 337 335 334 335 337 337 334 334 335 337 340 343 344 342 340 338 337 336 340 347 351 351 351 349 346 342 336 333 329 326 323 322 321 321 321 322 322 322 322
346 342 336 331 328 327 326 326 326 326 326 325 325 325 325 325 325 325 325 326 329 332 332 333 335 337 338 338 336 336 335 335 335 335 335 336 336 336 336 336 337 337 338 337 337 337 336 335 335 337 340 337 334 336 338 339 342 345 346 346 343 340 339 337 340 347 352 352 350 349 347 343 339 335 330 326 324 322 321 321 321 322 322 323 322
350 349 346 341 335 331 327 326 325 325 324 324 324 325 325 325 325 325 325 325 327 330 331 333 333 334 336 337 337 338 337 337 336 336 336 336 336 337 337 337 337 337 337 337 336 335 335 336 336 339 341 338 334 336 340 340 343 346 347 348 347 345 343 341 341 346 351 352 350 349 347 344 341 338 333 328 324 322 321 320 321 322 322 323 322
352 351 351 349 345 340 335 331 328 326 325 324 324 324 324 324 324 324 325 324 326 329 331 332 333 334 335 336 337 337 337 337 337 337 337 337 337 338 338 338 338 338 337 336 336 336 336 336 337 337 337 337 335 336 339 342 344 346 347 348 349 349 347 345 343 346 350 352 351 350 348 345 343 340 337 331 325 322 321 320 321 322 322 323 322
353 353 353 352 351 349 345 341 335 331 328 326 325 324 324 324 324 324 325 325 326 329 330 331 332 333 334 335 336 336 336 336 336 336 337 337 337 337 337 338 338 337 337 337 336 337 337 336 336 334 333 335 336 335 339 344 346 346 346 347 349 350 350 348 346 345 348 351 352 351 348 346 343 342 340 335 327 322 321 320 321 322 322 323 322
354 354 354 354 353 353 351 349 344 338 333 329 328 328 327 326 326 327 327 328 329 330 331 331 332 333 334 334 335 335 336 336 336 336 336 336 336 336 335 335 336 335 336 336 335 336 337 337 337 334 332 334 336 336 341 346 348 347 346 346 347 349 350 348 346 344 346 350 352 351 349 346 344 343 342 338 330 323 321 321 321 322 322 322 322
355 355 355 355 355 355 354 354 352 347 339 333 332 332 331 331 331 332 332 331 331 332 332 332 332 332 333 334 334 334 334 334 335 335 336 335 335 335 335 334 334 334 334 334 334 335 336 337 338 337 334 335 337 339 343 347 348 347 347 346 346 347 347 347 346 344 345 349 352 352 350 348 345 344 343 340 333 324 321 321 321 321 322 322 322
356 356 357 357 356 356 356 356 355 352 345 338 336 335 334 335 335 335 335 334 334 335 334 333 333 332 333 334 334 334 333 333 333 334 334 335 334 334 334 333 333 333 333 333 333 334 335 336 337 337 336 336 338 340 343 345 346 347 347 345 344 344 345 346 346 345 345 347 350 352 352 350 348 346 345 343 335 326 321 321 321 322 322 322 321
357 358 358 358 358 358 358 357 357 353 347 341 340 337 336 337 338 337 337 336 336 337 336 335 334 333 333 334 334 334 333 333 333 333 333 334 335 334 334 334 334 334 333 333 333 334 335 335 336 336 336 337 337 338 339 341 344 345 345 343 342 343 344 345 345 345 345 347 350 352 352 351 350 348 347 345 338 328 321 321 321 321 322 322 321
358 359 360 360 360 360 359 359 358 355 349 343 341 340 338 339 339 339 338 338 338 339 338 337 337 335 334 334 334 335 334 333 332 333 334 335 335 335 335 335 335 335 333 333 333 333 334 335 335 336 337 338 338 338 339 341 343 344 344 343 342 343 344 344 345 347 347 346 349 352 353 352 352 351 349 347 340 330 323 321 321 321 322 322 321
360 360 360 360 361 361 361 360 360 358 354 347 342 341 341 340 340 340 340 340 340 340 340 339 339 338 336 334 335 336 335 334 332 333 334 335 336 336 336 338 338 335 332 333 334 334 335 335 336 337 338 340 341 341 341 343 345 345 345 345 345 345 344 344 348 350 348 345 348 352 353 353 352 352 351 347 340 330 323 321 321 321 322 321 321
Wind_Speed
7 7 7 6 6 7 7 8 8 9 9 10 10 10 10 9 9 7 6 6 6 8 9 9 9 8 9 9 9 9 9 9 9 8 6 4 3 2 3 3 3 3 3 2 2 3 3 3 3 2 2 2 3 4 4 4 4 4 5 6 7 7 8 8 9 10 9 9 10 10 10 10 10 10 10 10 10 10 9 9 9 9 8 7 7
7 7 7 7 7 7 8 8 8 9 9 10 10 10 10 9 9 7 5 5 5 6 8 9 9 8 9 9 9 10 10 10 10 9 8 7 5 4 3 3 3 3 3 3 3 4 3 3 3 2 2 2 3 3 3 3 4 4 5 6 6 7 8 9 9 10 9 10 10 10 11 11 11 11 11 11 11 11 10 10 9 9 9 8 7
7 7 7 7 7 8 8 8 8 9 9 9 9 9 9 8 8 6 4 4 5 6 8 10 9 9 9 10 10 10 10 10 9 9 9 8 7 7 6 5 4 4 4 3 4 3 3 3 2 2 2 2 2 3 3 3 4 4 5 6 6 7 8 8 9 9 9 10 11 11 11 11 11 11 11 11 11 11 10 10 10 10 9 9 9
7 7 7 7 7 8 7 7 7 8 8 8 8 8 8 6 6 4 3 4 5 7 9 10 10 10 10 10 9 9 9 9 9 9 8 8 8 7 7 6 5 4 3 3 4 4 4 4 3 3 3 3 3 4 4 4 5 5 6 7 7 7 8 9 9 9 9 10 11 11 11 11 12 12 11 11 10 10 11 11 11 10 10 10 10
6 6 6 6 7 7 7 7 7 7 7 7 7 7 6 5 5 4 4 5 6 8 8 9 9 9 9 9 8 8 9 8 8 8 8 8 7 7 6 6 5 4 4 4 4 4 4 4 4 4 4 4 4 5 5 5 6 6 7 8 8 8 8 9 9 9 9 10 11 12 12 12 11 11 10 10 10 10 11 11 11 10 10 10 10
5 5 5 5 6 6 7 7 7 7 7 7 7 6 6 5 6 5 5 5 6 6 7 7 7 8 8 8 7 7 7 7 8 7 7 7 7 7 6 6 6 5 5 5 5 5 5 4 4 4 4 5 5 5 6 6 7 7 7 8 9 9 9 10 10 10 10 11 12 12 12 11 10 9 9 9 10 10 11 11 11 10 10 10 11
5 5 5 5 5 6 7 8 8 8 8 7 7 7 6 6 7 7 7 5 5 5 5 5 6 6 6 7 7 7 6 6 7 7 7 7 7 6 6 6 6 6 6 6 6 5 5 5 5 5 5 5 5 6 6 7 7 7 8 8 9 9 9 9 10 10 10 11 12 11 11 10 9 9 9 9 10 10 11 11 11 11 11 11 11
5 5 5 5 6 6 7 8 9 9 9 9 9 8 8 8 9 8 7 5 5 5 4 4 5 5 5 6 6 6 6 6 6 6 7 7 7 6 6 6 6 5 5 5 5 5 5 5 5 5 5 5 5 6 6 7 7 7 8 8 8 8 8 9 9 9 10 10 11 10 10 10 10 10 10 10 10 11 11 11 11 11 12 11 11
6 6 6 6 6 7 8 8 9 9 9 10 9 9 9 9 10 9 7 6 6 5 4 4 4 5 5 5 5 6 6 5 5 5 6 6 6 6 6 6 5 5 5 5 5 5 5 5 5 5 4 4 4 5 6 6 6 6 6 6 7 7 7 7 8 8 9 9 10 10 10 10 10 10 10 11 11 11 11 12 12 12 12 12 12
7 7 7 7 7 8 8 8 9 9 9 9 10 9 9 9 10 10 8 7 6 6 5 4 3 3 4 4 4 5 5 5 5 5 5 5 5 5 6 5 5 5 5 5 4 4 5 5 5 4 3 4 4 4 4 5 5 5 5 5 6 7 7 7 7 8 8 9 9 10 10 10 11 11 11 11 11 12 12 12 12 12 13 13 13
8 7 7 8 8 9 9 9 9 9 9 9 10 10 9 9 9 10 9 8 7 6 4 3 2 2 3 4 4 5 5 4 4 5 5 5 4 4 5 5 5 5 5 4 4 4 5 5 4 3 3 3 3 3 3 4 4 5 5 6 6 7 7 7 8 8 9 9 10 10 11 11 11 12 12 12 12 12 13 13 13 13 13 14 14
8 7 7 8 8 9 10 9 9 10 10 10 10 10 10 9 9 9 9 9 7 6 5 3 2 1 3 4 4 4 4 3 3 4 4 5 4 4 4 4 5 5 5 5 4 5 6 6 6 5 5 5 4 4 4 4 5 5 6 6 6 7 8 8 9 9 10 11 11 11 12 12 12 13 13 13 13 13 13 14 14 14 14 14 15
8 7 7 7 8 9 10 10 10 10 11 11 10 10 10 10 10 10 9 9 8 6 5 4 3 2 2 4 5 4 3 2 2 3 4 4 4 5 4 4 4 5 5 6 6 7 7 8 8 8 8 7 7 6 6 7 7 7 7 7 8 8 9 9 10 11 11 11 12 12 12 13 13 13 13 14 14 14 14 14 15 15 15 15 15
7 8 8 8 8 9 10 10 10 10 11 12 12 12 11 11 11 10 10 9 8 7 6 6 4 1 1 3 5 4 2 2 2 3 4 5 5 5 5 5 5 6 6 6 6 7 7 8 9 9 9 9 9 8 8 8 8 8 8 8 9 9 10 11 11 11 11 12 12 12 13 13 13 13 14 14 14 14 15 15 15 15 15 15 15
7 8 8 8 8 9 10 10 10 11 11 12 13 12 12 11 11 10 9 9 7 7 7 7 4 1 2 3 5 6 3 2 3 3 4 5 5 6 6 5 5 6 6 6 6 7 7 8 9 9 10 11 11 10 9 9 9 9 10 10 10 11 11 11 11 11 11 11 11 12 12 12 13 13 13 14 14 15 15 15 15 15 15 15 15
7 8 8 8 8 9 10 10 11 11 11 12 13 12 12 11 11 10 9 8 7 8 8 6 3 2 2 2 5 7 5 4 3 3 4 5 5 5 5 5 4 5 5 6 6 6 7 8 8 9 10 11 11 11 11 11 11 11 11 12 12 11 11 11 11 11 11 11 11 12 12 12 13 13 13 14 14 15 15 15 16 16 16 16 16
8 8 8 8 9 9 9 9 9 10 10 12 13 13 13 13 12 10 9 8 8 9 8 5 3 3 2 1 3 6 6 6 3 2 4 5 5 5 4 4 4 5 5 5 5 5 6 7 8 8 9 9 10 10 11 12 12 13 12 12 11 11 11 11 11 11 11 12 12 12 13 13 13 14 14 15 15 15 16 16 16 16 16 16 17
9 9 9 9 9 9 8 8 8 9 9 11 13 14 15 15 13 11 10 9 9 9 8 5 4 4 4 3 2 5 6 6 4 3 3 4 5 5 5 5 5 4 4 4 5 5 6 6 7 7 8 8 9 10 11 12 12 12 12 11 11 11 11 11 11 12 12 12 13 13 14 14 15 15 15 16 16 16 17 17 17 17 17 17 17
9 9 10 10 9 9 8 8 8 9 10 11 13 15 16 15 14 12 11 10 10 9 7 5 4 4 4 3 2 4 5 4 5 5 4 2 4 6 6 6 5 4 3 4 5 5 5 6 6 7 7 8 9 10 11 12 12 12 11 11 11 11 11 11 11 11 12 13 13 14 14 15 15 16 16 16 16 17 16 16 16 16 16 16 16
10 10 10 10 10 9 8 9 9 10 11 11 13 15 17 17 15 13 12 11 11 9 7 5 4 4 3 3 3 4 3 3 4 5 6 5 5 6 6 6 5 4 3 4 4 4 5 5 6 6 7 7 7 8 9 10 11 11 11 11 11 11 10 10 11 11 12 13 13 14 14 14 15 15 16 16 16 16 16 16 16 16 16 16 17
11 11 11 11 10 9 9 9 10 10 11 11 13 15 17 18 17 15 14 12 11 9 8 6 5 5 5 4 4 4 3 4 5 5 7 7 7 7 8 7 5 4 5 5 4 4 4 5 6 6 6 6 6 7 7 7 9 10 10 9 9 9 9 9 10 11 12 13 13 13 14 14 15 15 15 15 15 15 15 16 16 17 18 18 19
12 12 12 11 10 10 10 9 10 10 10 11 12 14 15 16 17 16 15 14 12 10 9 7 6 7 7 6 6 5 4 5 6 6 6 6 7 8 9 8 6 5 5 5 5 4 4 4 5 5 5 6 6 6 7 7 7 7 9 9 10 10 10 10 11 12 13 14 14 13 14 14 14 14 14 14 15 16 17 18 20 21 21 22 23
13 13 12 11 11 11 11 10 10 10 10 11 12 13 13 14 15 16 16 15 13 12 10 9 8 8 8 8 8 6 5 6 5 5 5 6 7 7 7 8 8 6 5 5 5 4 3 3 3 4 5 6 6 6 7 8 8 8 9 11 13 14 14 13 13 14 15 14 14 13 13 13 13 13 14 16 17 19 20 22 23 24 24 26 27
15 15 14 12 12 12 12 11 11 11 10 10 11 11 12 13 13 15 16 16 14 12 10 9 9 9 9 9 9 8 7 6 5 4 5 6 6 6 6 7 8 6 5 5 5 4 3 3 3 5 6 6 7 8 9 10 11 11 13 14 16 17 17 16 15 15 14 13 13 13 12 12 12 14 16 18 19 21 23 24 25 27 27 28 29
16 16 14 13 12 12 12 12 12 11 10 10 10 10 11 11 12 14 16 16 14 13 11 10 9 8 8 9 9 9 8 7 5 4 5 5 6 5 6 7 8 8 7 6 5 5 5 5 5 7 8 8 9 10 11 12 13 14 15 17 18 18 17 16 15 14 13 13 12 12 12 13 14 17 18 20 21 23 25 27 27 28 28 28 28
17 15 14 14 13 13 12 12 12 11 11 10 10 10 10 10 10 11 12 14 14 13 11 10 9 8 7 7 8 9 8 7 5 6 6 5 5 5 6 8 9 8 8 7 6 6 7 7 8 9 10 10 11 12 13 14 15 16 17 17 17 17 16 15 14 13 12 12 12 12 13 15 17 18 20 22 24 25 26 27 26 26 27 27 28
17 15 14 15 15 13 13 13 12 12 11 10 11 11 10 9 9 9 10 11 13 14 13 10 9 8 7 7 8 10 9 7 7 6 5 5 5 4 6 9 9 8 7 6 7 8 8 8 9 10 11 12 13 14 15 16 17 17 18 18 17 16 15 13 12 12 12 13 13 14 15 17 18 20 22 24 25 26 26 25 26 26 27 29 30
17 15 15 15 15 15 14 13 12 12 11 11 11 12 11 10 10 10 9 10 11 13 13 12 10 9 9 9 8 9 9 8 8 6 5 5 4 4 6 8 9 10 10 8 7 9 9 9 9 10 12 13 14 15 16 16 17 18 18 17 16 15 13 12 12 12 13 14 14 15 17 18 20 22 24 25 25 25 25 25 26 26 28 30 30
19 16 14 15 15 15 15 14 13 12 12 12 12 12 13 12 11 10 10 10 10 11 11 11 11 11 11 10 8 8 9 9 8 7 6 5 4 5 6 7 8 10 12 11 9 9 9 9 8 9 10 12 13 13 14 15 16 16 16 16 15 14 12 12 13 14 15 15 16 16 18 20 21 23 24 24 24 24 24 24 26 27 29 30 29
20 17 16 15 14 14 14 14 14 13 12 12 12 13 14 14 13 11 10 9 9 10 10 10 10 10 11 10 9 9 10 10 10 9 7 6 5 5 7 7 8 9 11 12 11 9 8 8 9 10 10 10 10 11 11 13 14 15 15 15 15 13 12 13 14 14 15 16 17 18 20 21 22 24 24 23 23 23 23 25 27 28 29 28 28
21 19 18 17 16 15 14 14 14 14 13 13 13 13 14 14 14 13 11 10 10 10 9 9 8 10 11 11 11 11 12 11 11 10 9 8 7 7 7 8 8 9 10 11 12 10 9 10 10 10 10 9 10 10 9 11 12 13 14 15 15 13 13 13 14 14 16 17 18 19 20 22 23 23 23 23 22 22 23 25 27 27 27 27 28
22 21 20 20 18 17 16 14 13 13 13 13 13 13 14 14 14 14 13 12 11 10 9 9 9 9 11 12 13 14 14 13 12 12 11 10 9 8 8 8 9 10 11 12 13 12 10 11 10 9 10 10 9 9 9 10 11 11 12 14 14 14 13 12 14 15 16 17 18 19 21 22 23 23 23 23 22 22 24 26 26 25 25 27 28
22 21 21 21 20 18 18 16 15 14 13 13 13 13 14 14 14 14 13 13 12 11 10 10 10 9 10 12 14 15 16 15 14 14 13 12 11 10 9 9 9 11 12 12 14 15 12 10 10 9 10 10 9 9 9 10 10 10 12 14 13 13 12 13 15 16 16 17 18 20 21 22 22 23 22 22 22 22 25 26 25 24 25 27 28
24 23 22 21 20 19 18 18 16 15 14 14 14 15 15 15 14 14 13 13 13 12 12 12 11 10 10 10 12 14 17 17 16 16 16 15 14 12 10 10 11 12 12 13 15 17 16 13 11 9 9 10 10 9 10 11 11 11 14 15 14 12 12 13 15 16 15 17 19 20 21 21 22 22 22 21 22 23 25 25 23 24 26 27 28
26 25 23 22 21 21 19 18 17 16 16 15 15 16 16 16 15 15 14 13 13 13 14 13 12 12 12 12 10 11 15 18 18 18 17 17 16 13 11 11 12 12 12 13 15 17 18 17 14 11 10 11 10 9 10 11 11 13 15 16 15 13 12 13 15 15 15 17 19 20 20 21 22 22 22 21 22 24 24 24 23 24 27 28 28
28 27 25 24 23 22 21 20 19 18 17 17 17 17 17 17 17 16 15 15 14 14 15 14 14 14 14 14 12 11 12 15 17 17 17 17 16 14 12 12 12 12 13 14 15 17 19 19 17 14 13 13 11 10 11 11 11 13 15 16 16 14 13 13 14 15 15 17 19 19 20 21 22 23 22 22 23 24 24 23 24 25 27 29 29
31 29 28 27 26 25 24 22 21 20 19 19 18 18 18 18 18 18 17 17 16 16 16 15 16 16 16 15 14 13 13 13 13 14 14 16 16 15 14 13 14 14 14 15 15 17 18 20 19 16 14 14 13 11 11 11 12 13 15 16 16 15 14 12 13 14 15 17 19 19 20 21 22 23 23 23 24 23 23 23 24 26 28 29 29
34 32 31 30 29 28 26 25 24 23 22 21 20 19 19 19 19 20 19 19 18 17 17 17 17 16 17 17 15 15 15 15 13 13 13 14 15 15 15 15 15 15 15 15 16 17 18 19 20 18 16 15 13 12 11 12 14 15 16 16 15 15 15 13 12 13 14 16 18 19 19 20 22 23 24 24 24 23 23 23 25 26 28 29 29
36 35 34 33 32 30 29 28 27 25 25 24 23 22 21 21 20 21 21 21 20 20 19 18 18 18 17 17 17 17 17 17 16 15 15 15 15 16 15 15 15 15 15 15 16 17 19 19 19 19 17 16 14 13 12 13 14 15 16 18 17 16 16 14 13 13 13 16 18 19 19 20 21 23 24 24 24 23 23 24 25 26 28 29 29
36 37 36 35 34 33 32 31 30 29 28 27 26 25 24 23 22 22 22 22 22 22 21 20 20 19 19 19 18 18 18 19 18 18 17 17 17 17 17 16 16 16 16 16 17 18 19 19 19 18 17 16 14 13 13 13 13 14 16 18 19 18 18 16 14 13 13 15 18 18 18 19 20 22 23 24 23 22 22 23 24 26 28 29 29
35 37 37 37 36 35 34 33 32 31 31 30 28 27 26 25 24 24 23 23 23 23 23 22 22 21 21 20 20 19 19 19 20 20 19 19 19 19 18 17 17 17 17 17 18 19 19 20 20 18 17 16 14 13 13 12 12 14 16 18 20 20 20 18 15 13 13 14 16 18 18 18 19 21 22 23 23 23 23 24 25 26 28 29 29
33 35 36 38 38 38 37 36 35 35 34 33 31 29 28 27 26 26 25 24 23 24 24 25 24 23 22 22 21 21 20 20 20 20 20 20 20 20 19 18 18 19 19 19 19 19 20 20 19 17 17 16 13 13 13 12 12 14 16 19 21 21 22 21 16 13 13 15 17 18 18 18 19 21 22 24 24 24 24 24 25 27 28 29 29
32 32 34 36 38 38 38 37 37 37 36 35 33 31 30 28 28 27 27 26 25 25 25 26 26 25 24 24 23 22 22 22 21 21 21 21 21 20 20 20 20 20 20 20 20 19 19 20 18 17 17 17 15 14 14 13 13 14 16 19 22 23 24 23 20 16 15 16 17 18 18 18 19 20 23 24 24 24 24 24 25 27 28 29 29
32 32 32 34 35 37 37 38 38 37 37 35 34 32 31 30 29 28 28 27 27 26 26 26 27 27 26 26 25 25 24 23 22 22 22 22 22 21 21 21 21 21 21 20 20 20 21 20 20 19 19 18 17 15 15 15 16 18 19 20 22 24 25 24 23 20 18 18 19 19 19 19 19 20 22 24 25 25 25 25 25 26 28 29 30
33 33 33 32 33 34 36 37 38 38 37 36 34 33 32 31 30 30 29 29 28 28 27 27 27 28 28 27 27 26 25 24 24 24 23 23 22 21 21 21 21 22 21 22 22 22 22 22 22 23 21 20 19 17 16 19 21 21 22 22 22 23 24 24 23 22 20 20 20 21 20 19 19 20 22 24 25 25 25 24 25 26 28 29 30
35 35 34 34 33 33 34 35 37 38 38 37 36 35 34 32 31 31 30 30 29 29 28 28 28 28 29 29 29 28 26 26 25 25 24 23 23 23 23 23 23 23 23 24 24 23 23 22 24 25 23 22 22 20 19 20 22 21 22 23 22 23 24 24 23 22 20 20 20 21 21 20 20 21 22 23 25 25 24 24 24 26 27 28 29
34 34 34 34 34 33 33 33 35 37 38 38 37 36 35 33 32 31 30 30 30 29 29 29 29 29 29 29 29 29 28 27 26 26 25 25 25 25 25 25 25 25 25 25 24 23 22 22 23 24 25 24 24 24 23 22 22 22 22 23 23 24 25 25 24 22 20 20 20 21 21 21 20 21 21 23 24 24 24 24 24 25 26 27 28
33 33 33 33 33 33 33 33 34 36 38 38 38 37 36 34 32 31 31 30 30 30 30 30 30 29 29 29 29 29 29 28 28 27 27 27 27 28 28 27 27 27 26 25 24 23 23 23 23 24 25 25 25 25 25 24 24 24 24 25 25 24 25 25 25 23 20 19 19 20 21 21 21 20 21 22 23 23 23 23 23 24 26 26 26
32 32 32 31 31 32 32 33 34 35 37 38 37 36 35 34 32 32 31 31 31 31 31 30 30 30 29 29 29 29 29 29 28 28 28 28 29 29 28 28 28 28 28 27 25 25 24 23 23 24 25 26 26 27 27 27 26 26 26 27 25 24 23 24 25 23 21 20 20 20 22 22 20 20 21 22 23 22 22 22 22 23 25 25 25
32 31 31 31 31 31 32 32 33 33 34 35 36 36 35 33 33 32 32 32 32 31 31 31 31 31 31 30 30 30 30 30 29 29 28 29 29 29 29 29 29 30 30 28 27 26 24 23 23 23 24 24 24 25 25 25 25 24 25 25 24 22 23 23 23 23 22 22 20 19 21 21 20 20 21 22 23 22 20 20 21 22 23 24 24
33 32 32 33 33 32 31 31 31 31 31 32 34 35 35 34 33 33 32 32 32 32 32 31 31 31 31 31 31 31 31 30 29 29 29 29 30 29 29 29 29 31 30 28 27 26 25 24 23 23 22 21 21 21 21 21 21 22 23 23 22 22 23 23 22 22 23 24 21 19 20 21 20 20 20 21 22 21 20 19 20 21 21 22 22
Wind_Direction
149 156 166 168 167 164 162 162 156 149 151 157 164 165 163 159 152 141 121 107 102 99 96 91 88 86 83 77 73 71 70 69 68 71 73 78 76 69 78 74 74 73 69 62 55 57 54 49 48 40 30 27 20 17 20 15 9 8 5 3 1 1 1 359 358 359 360 359 355 351 347 344 343 342 341 338 336 336 337 338 338 342 345 348 352
143 147 159 166 167 168 166 163 158 153 153 157 163 166 165 162 158 152 131 112 110 105 99 96 94 89 84 79 76 74 72 69 66 68 70 71 66 59 63 64 65 63 59 60 63 70 70 65 53 41 36 33 26 16 12 3 0 1 355 354 358 358 357 354 353 353 350 347 347 344 340 339 337 337 337 335 335 338 343 347 348 353 356 359 2
140 139 146 153 157 162 167 166 163 160 159 159 162 166 167 166 166 163 142 127 128 116 104 100 97 91 86 82 80 79 75 72 70 70 70 69 66 61 61 60 59 57 56 55 60 67 64 62 49 36 24 14 5 356 350 346 349 351 346 348 353 350 346 345 346 345 342 340 339 336 334 332 330 329 329 329 333 341 350 356 357 0 2 2 3
137 137 140 145 150 155 162 166 168 169 168 168 168 171 174 174 178 179 164 147 139 122 108 103 100 93 89 84 83 80 75 73 73 74 71 69 68 65 65 65 63 59 57 50 47 49 47 44 35 25 12 2 357 350 347 347 346 347 345 344 345 344 339 338 341 340 336 333 330 328 326 323 322 322 326 330 339 350 357 359 0 1 2 2 3
147 143 145 148 153 156 162 166 170 173 176 177 177 179 183 188 193 196 192 167 141 124 111 105 100 93 92 87 83 79 74 74 74 74 71 70 70 68 69 68 68 63 57 51 41 41 38 34 28 20 12 8 3 359 356 352 348 349 348 343 341 340 338 337 339 339 333 331 328 326 325 324 324 325 332 341 350 359 360 360 0 1 3 4 5
172 165 161 160 165 168 172 177 180 183 185 185 183 184 186 189 191 191 192 173 140 124 114 107 100 93 92 87 82 79 76 75 74 73 68 66 66 67 67 63 61 57 51 48 41 36 30 24 20 12 9 6 1 358 354 350 347 346 344 339 339 338 337 337 338 338 335 335 335 335 337 338 338 340 345 351 356 1 360 359 1 2 4 5 5
189 185 182 181 183 184 185 189 192 194 198 199 193 190 188 186 187 188 187 172 142 127 116 109 101 93 90 84 81 79 79 77 70 67 63 60 60 60 62 59 56 52 48 45 41 37 30 24 17 10 5 1 358 354 349 345 342 340 338 335 336 338 339 338 337 338 339 343 346 349 354 355 357 358 358 358 0 1 0 0 2 2 3 3 1
193 194 195 196 197 198 195 193 195 197 200 202 199 194 192 189 188 187 184 172 152 137 123 115 107 100 92 82 77 74 75 74 67 63 58 57 55 52 52 53 53 48 41 36 34 29 24 20 14 10 5 2 358 353 346 341 338 336 336 334 335 338 340 340 340 343 348 353 358 3 6 7 7 6 2 1 1 0 1 1 0 360 359 357 355
197 198 198 197 198 202 200 194 195 197 198 198 196 194 194 193 192 189 184 175 159 145 135 127 112 98 89 77 74 74 73 69 64 59 56 56 53 49 44 43 43 36 27 21 18 15 9 2 355 352 350 349 344 343 341 336 334 332 332 333 336 341 345 347 349 352 358 3 8 12 12 12 10 7 5 2 1 1 0 360 358 356 355 353 351
202 201 200 197 199 202 199 193 192 197 197 197 195 194 194 195 194 191 187 179 165 154 150 139 107 80 71 70 71 72 72 69 67 62 58 56 50 46 41 35 29 20 13 9 8 8 4 357 350 341 334 338 335 335 337 335 337 337 339 344 347 352 355 358 2 5 10 13 14 16 16 14 11 8 6 3 2 1 359 358 355 353 352 350 348
204 204 202 199 200 202 200 194 191 194 196 196 195 191 189 189 188 187 186 181 175 170 168 161 127 80 59 62 66 64 64 65 71 71 63 55 46 40 33 27 23 16 10 7 9 11 14 16 17 15 9 9 5 353 345 345 350 353 357 1 4 6 9 11 16 17 18 19 19 20 18 15 12 10 7 5 2 1 359 357 354 352 350 347 345
203 202 201 200 200 202 202 198 194 194 194 194 192 188 184 183 183 183 183 182 182 182 186 185 166 126 61 53 49 52 58 64 73 70 63 57 48 38 31 29 31 28 25 29 37 39 40 44 46 47 44 39 35 27 20 17 16 16 16 17 19 21 22 24 25 24 23 22 20 19 17 14 11 8 6 4 1 359 358 355 353 351 348 346 343
200 199 198 197 196 198 198 197 195 193 191 188 185 184 185 185 185 183 182 184 187 191 197 198 185 161 70 39 28 28 46 62 72 66 63 59 52 48 44 45 49 46 48 55 60 58 55 56 55 52 49 46 44 41 39 37 35 32 29 28 28 28 29 28 27 25 22 20 18 15 13 10 7 5 2 0 358 357 355 353 352 349 347 345 342
198 199 199 195 192 193 193 193 192 188 186 186 184 184 186 187 188 185 186 190 196 202 207 206 197 194 326 359 11 17 35 67 66 64 67 64 62 62 58 59 61 58 59 65 67 64 59 56 54 51 49 48 47 47 47 46 42 39 36 34 33 31 30 28 25 22 20 17 15 12 10 8 5 2 359 358 356 354 352 351 350 348 346 343 341
199 199 200 197 190 188 189 191 191 189 186 187 187 186 187 189 189 189 192 196 205 212 210 204 201 236 305 342 2 1 14 56 59 63 71 69 65 65 64 61 59 59 61 64 67 65 60 55 52 50 49 48 49 50 51 49 46 43 40 36 34 31 28 25 23 20 18 16 14 12 10 7 4 1 358 356 353 351 349 347 346 344 341 339 337
200 198 197 195 189 185 186 189 193 193 191 191 192 191 192 191 188 189 193 199 207 210 204 197 201 253 291 341 357 354 1 11 30 72 68 59 56 53 58 55 49 54 59 60 60 58 54 52 51 49 48 47 48 49 50 49 47 44 41 38 34 31 27 24 20 17 15 13 12 11 9 6 4 1 359 357 354 352 350 347 345 342 339 337 334
198 195 194 192 189 188 189 191 195 199 198 196 195 195 194 191 188 190 196 204 206 206 204 206 224 245 253 287 352 356 357 353 359 69 57 45 47 46 47 44 41 49 58 61 51 47 51 50 48 47 46 47 46 46 46 45 44 42 39 36 31 27 23 20 17 15 12 11 9 8 7 5 2 0 359 357 355 353 350 348 345 342 339 336 333
200 195 195 193 189 190 193 194 198 204 207 204 200 198 196 192 193 197 202 207 205 204 208 219 241 245 244 248 299 331 337 344 346 6 40 50 42 31 30 29 31 39 51 59 53 52 54 50 48 47 47 50 50 50 48 45 43 41 38 35 31 27 23 20 17 14 10 7 5 3 2 0 358 357 355 353 351 349 346 343 341 339 337 335 331
205 202 199 197 193 192 193 194 197 203 209 211 206 203 200 196 199 203 205 207 203 204 208 221 241 248 255 253 268 307 321 338 341 340 352 17 19 15 13 15 19 24 44 57 57 62 58 53 54 54 54 55 55 55 51 47 44 41 39 37 35 31 26 21 15 10 4 0 358 356 356 355 353 351 348 346 343 340 338 337 336 334 331 328 325
208 206 204 203 201 199 197 194 195 199 206 210 209 208 206 205 206 207 209 209 208 212 218 226 238 253 274 274 271 291 311 328 326 329 329 328 346 3 5 13 21 18 32 53 55 58 60 63 67 65 61 55 51 50 45 43 41 39 38 35 30 25 18 11 4 358 354 351 350 349 348 347 344 341 339 336 334 332 331 330 328 325 321 317 314
209 208 208 207 208 207 202 199 197 199 204 207 209 211 212 213 216 216 215 215 219 226 232 237 244 263 280 275 261 268 291 316 314 312 317 321 331 344 352 8 30 29 26 38 48 58 68 77 75 66 56 45 37 33 29 27 29 29 26 20 14 7 359 353 347 343 340 338 338 337 337 336 333 331 330 329 327 325 323 320 316 313 310 308 307
210 210 211 210 211 211 209 206 204 204 206 208 211 214 216 220 222 220 219 221 227 231 238 249 248 253 268 265 254 261 291 318 318 308 305 312 321 330 340 349 5 21 24 32 39 51 68 76 69 51 38 31 24 18 12 7 6 6 2 357 352 347 341 336 333 333 333 333 332 332 332 331 330 330 329 325 321 317 314 312 310 309 308 307 307
213 214 215 213 212 215 217 215 212 210 208 207 211 215 220 225 225 220 219 223 228 232 240 249 244 241 250 253 249 254 284 311 317 303 293 299 311 324 333 334 341 355 12 29 35 36 50 56 46 33 25 22 13 3 360 356 349 339 337 338 340 342 338 333 332 333 335 335 334 333 332 332 332 329 324 320 317 316 314 313 312 312 310 308 307
216 217 217 218 219 221 221 219 216 212 208 207 208 210 216 221 224 222 222 226 231 236 243 245 244 245 248 248 248 249 268 295 301 282 276 288 301 313 325 328 333 341 353 16 24 16 12 5 5 11 10 4 355 349 347 346 339 331 329 332 335 338 337 335 334 334 334 334 332 330 329 329 326 322 321 320 321 319 317 316 315 313 311 310 309
218 219 219 221 225 225 224 221 219 216 213 212 209 205 207 212 219 224 226 231 237 241 243 244 245 252 253 247 245 248 261 278 277 257 259 276 289 297 312 325 329 333 339 356 8 2 354 349 347 351 353 348 343 341 340 338 333 329 327 329 332 335 336 336 335 333 332 330 326 323 321 320 320 323 325 326 324 321 320 319 317 316 317 318 319
219 220 222 225 227 227 225 222 221 221 219 218 214 207 206 208 214 222 226 230 236 239 241 241 242 251 253 244 245 252 260 261 250 243 250 262 275 286 304 317 321 326 335 344 353 350 344 341 340 343 346 346 343 339 337 334 332 330 330 332 336 337 337 336 334 332 329 325 320 316 317 319 322 325 327 326 325 323 323 322 323 325 327 328 329
220 220 224 228 229 227 225 223 221 222 222 222 220 215 214 214 216 222 225 226 230 236 241 241 240 244 244 245 255 260 255 243 233 237 249 260 267 284 311 321 323 330 339 347 355 351 343 339 337 337 339 341 341 339 337 335 335 336 337 339 341 339 337 336 333 329 324 320 317 317 319 321 323 325 326 327 327 327 327 329 331 332 332 332 333
220 219 222 226 229 229 228 226 224 223 223 224 225 223 222 223 224 226 227 228 231 236 243 245 243 241 240 246 260 257 242 230 228 238 250 260 267 282 308 323 331 337 343 353 5 359 351 346 339 334 334 337 339 338 337 337 337 338 339 340 341 337 335 333 329 326 323 321 320 319 319 320 322 325 328 330 330 330 332 333 333 331 332 333 335
222 220 221 224 228 231 232 231 229 227 227 227 227 226 226 229 231 231 230 232 236 240 246 249 245 241 239 245 251 242 230 227 233 244 247 249 264 281 295 310 327 338 340 342 351 358 356 352 346 337 335 337 336 335 336 337 338 339 339 338 337 334 329 328 329 328 325 321 319 317 317 320 326 330 332 333 333 333 334 333 330 330 333 335 339
225 223 223 223 226 231 233 234 235 234 233 232 232 230 230 234 237 236 233 236 243 246 248 250 245 238 236 237 236 230 229 231 236 245 245 243 255 273 289 301 316 332 336 332 336 348 352 347 343 338 336 336 334 334 339 341 341 342 340 337 336 332 326 327 331 328 322 318 317 317 319 326 332 334 335 335 334 333 333 331 330 333 336 339 343
226 225 224 224 226 230 231 233 235 238 238 237 237 236 235 236 239 238 237 241 250 253 252 251 246 239 235 233 230 227 229 233 239 245 246 246 253 265 282 296 309 323 329 326 326 334 338 334 332 331 331 333 335 333 337 344 343 343 341 337 335 332 327 326 326 323 320 318 317 320 326 332 336 336 337 336 334 332 330 330 333 336 340 344 345
228 227 225 224 226 228 230 232 234 237 241 242 243 244 242 240 240 240 241 245 253 257 257 256 253 244 238 234 233 231 230 231 237 244 248 251 254 261 276 289 302 317 323 321 319 322 329 329 325 324 324 328 333 329 329 339 342 342 342 338 335 332 326 322 320 320 321 320 320 326 332 336 338 339 338 335 331 329 329 332 336 340 344 346 344
230 228 226 225 226 229 232 235 236 238 242 245 248 251 251 248 245 242 242 245 251 256 256 256 257 253 247 242 239 238 234 233 236 243 249 254 257 261 273 285 298 311 315 314 313 316 324 328 323 320 319 321 329 331 327 331 336 340 341 339 338 333 324 319 318 320 323 323 326 333 336 338 340 340 337 332 328 328 331 334 339 344 347 346 345
232 229 228 228 230 233 236 238 241 243 246 248 251 254 256 256 252 247 244 244 248 252 254 255 257 258 258 255 250 245 240 238 239 244 249 255 259 262 271 283 296 305 308 308 308 310 315 322 323 322 319 320 328 334 330 329 334 340 340 338 340 335 324 320 319 321 326 328 331 335 337 338 340 338 334 329 328 330 332 336 342 346 347 346 347
234 231 230 232 235 237 240 244 248 250 252 253 253 254 255 256 255 253 248 246 246 249 252 254 256 259 262 264 263 256 249 245 243 245 250 255 259 263 271 284 295 300 302 303 304 306 309 313 318 322 321 321 327 332 329 328 334 340 339 336 337 335 327 321 318 322 329 331 332 335 336 338 339 337 333 330 330 332 335 339 344 347 347 347 349
235 234 233 234 236 239 242 246 250 254 256 256 256 256 256 255 255 255 254 252 249 248 251 252 253 256 260 264 266 265 259 253 248 247 250 254 258 265 274 284 290 293 297 299 301 303 304 307 311 317 319 320 324 328 325 323 329 337 337 334 334 332 329 325 321 325 331 332 332 334 335 337 338 336 334 332 333 334 336 341 345 347 348 349 351
236 235 235 236 237 239 241 244 249 253 256 259 260 261 262 260 258 255 255 255 254 252 251 252 252 253 256 259 261 262 262 260 256 254 254 257 260 267 274 279 284 289 293 295 297 298 299 302 306 310 315 317 317 320 321 320 323 329 330 330 331 328 327 328 324 325 330 330 331 332 333 336 337 335 334 334 334 334 337 342 346 347 348 350 352
239 237 236 237 239 240 242 244 248 251 255 258 261 264 267 268 266 262 258 256 256 256 254 252 252 252 254 255 255 256 258 259 259 258 257 259 262 266 272 276 281 287 290 291 293 295 296 298 301 305 310 312 311 312 317 319 322 326 325 322 326 327 326 328 324 321 326 328 329 330 331 334 335 334 334 334 334 335 338 343 345 347 348 351 353
242 241 238 238 239 242 244 246 247 250 253 256 258 261 265 267 269 268 265 260 257 257 257 255 253 252 252 253 252 252 254 256 257 258 258 260 263 266 270 275 280 284 285 286 289 292 294 295 297 301 304 304 304 305 311 318 323 329 326 319 320 324 325 326 322 317 321 325 326 326 330 334 334 332 332 333 333 335 339 342 344 345 348 351 353
243 243 242 241 241 243 245 247 249 250 252 254 255 257 260 263 266 268 268 265 260 257 256 256 255 253 252 252 251 249 249 252 254 256 259 262 266 268 270 273 275 276 278 281 284 288 292 294 295 297 297 296 296 299 307 317 324 330 330 323 321 323 323 324 322 316 317 321 322 323 328 332 332 330 330 332 333 335 339 341 342 343 346 350 353
244 244 244 244 244 244 246 247 249 250 251 252 252 253 256 260 263 265 266 267 264 260 257 254 254 254 252 252 251 248 247 249 251 253 255 258 263 265 267 268 270 273 275 278 281 285 289 291 291 291 290 288 289 294 302 314 325 329 330 326 323 321 320 321 321 316 314 317 320 321 325 328 329 329 330 331 332 335 339 340 340 342 345 349 351
246 245 245 245 246 246 247 247 249 250 251 251 251 252 255 257 260 262 263 264 264 263 259 255 254 253 253 252 252 251 250 250 250 251 252 254 257 260 262 265 268 272 275 277 280 284 287 288 287 284 283 282 282 289 299 309 321 327 328 327 324 322 318 318 320 319 315 317 320 321 321 323 327 329 330 331 333 336 338 339 339 341 344 348 350
249 247 246 246 246 246 247 247 248 249 250 250 250 251 253 255 257 259 261 262 262 262 260 257 255 253 253 254 253 253 254 253 253 253 254 255 257 259 261 264 267 271 274 276 279 282 286 285 281 276 277 278 278 285 296 305 314 318 320 322 323 323 321 318 319 321 318 317 320 321 320 321 325 328 331 333 334 335 337 337 337 339 343 346 348
252 251 249 248 247 247 247 247 248 248 249 250 250 251 251 253 255 257 259 260 261 261 259 257 255 254 254 254 254 255 255 256 256 256 257 257 258 259 260 262 265 267 270 273 277 281 284 283 278 273 273 277 279 284 293 301 305 307 308 311 315 318 318 317 316 316 316 316 318 320 319 318 320 326 331 333 333 334 335 335 335 338 342 345 346
254 254 253 252 251 249 248 248 247 247 248 249 249 250 251 251 253 255 257 258 259 259 258 256 255 255 254 254 254 254 255 256 257 258 258 258 257 258 259 260 261 263 266 270 274 278 280 278 274 272 273 277 280 281 289 299 302 302 301 303 305 307 310 311 311 310 310 312 314 316 316 315 317 322 329 333 333 332 333 332 333 336 340 343 345
255 255 254 254 253 252 251 251 249 248 247 248 249 250 251 251 253 255 257 257 258 257 256 254 254 253 254 254 254 254 254 254 255 256 257 257 257 258 259 259 260 261 264 267 269 271 272 272 271 272 273 275 277 278 285 294 300 302 301 299 298 298 300 303 306 305 304 307 309 311 312 313 316 319 325 331 332 331 330 330 331 334 338 342 344
254 255 255 255 255 254 254 253 253 250 247 246 247 249 250 251 252 253 255 255 255 255 254 253 252 252 253 254 255 254 253 253 253 253 254 255 256 258 259 260 261 261 262 264 265 266 266 265 267 270 271 271 271 274 279 284 290 296 298 296 293 292 293 297 300 300 299 300 303 306 308 310 314 316 321 328 331 329 327 327 329 332 336 340 342
254 255 255 255 255 254 254 254 253 251 248 245 246 247 248 249 250 252 253 253 253 253 252 252 252 252 252 253 255 255 254 253 251 250 251 253 254 256 258 259 261 262 261 261 262 262 263 263 265 267 268 268 267 268 273 277 281 287 292 291 288 288 290 292 295 297 297 296 297 299 302 306 310 313 317 324 328 327 324 324 325 329 334 337 339
253 254 254 255 255 254 253 253 252 251 248 245 244 244 245 246 248 249 250 250 251 252 251 251 252 252 252 253 254 256 255 253 251 250 251 253 254 255 257 259 261 261 261 260 261 261 262 263 265 267 268 268 266 266 268 273 278 282 284 284 284 285 286 287 290 295 297 295 293 296 298 301 305 309 313 320 324 323 321 320 321 326 332 334 336
253 254 255 255 256 255 255 254 253 253 251 247 244 243 242 243 245 247 248 250 251 252 251 251 252 252 252 252 253 255 255 253 252 252 253 256 257 258 258 260 262 261 260 259 260 262 263 264 266 269 270 269 268 267 268 271 275 277 278 279 282 283 283 284 289 296 297 292 291 293 295 297 300 304 308 315 319 320 318 316 318 324 329 331 334
255 256 256 256 257 257 257 257 256 256 254 249 245 243 241 241 243 244 247 250 251 252 252 252 252 252 252 252 252 253 254 253 252 253 255 258 259 259 260 263 264 262 260 261 262 263 265 267 268 269 269 268 267 266 265 266 269 271 273 277 279 280 281 284 290 295 294 291 291 292 293 295 297 298 303 310 314 315 314 313 316 322 326 328 332